Welcome to the New NWS' Forecast!
Most changes are behind the scenes, but click here for differences you might notice.
Latest weather observations around

Hawthorne, Hawthorne Municipal Airport (KHHR)

Using English Units (Switch to International System of Units)
Date/ Time (PST) Wind (mph) Vis. (mi) Weather Sky Cond. Temp (°F) Rel. Humidity Wind Chill (°F) Heat Index (°F) Pressure Precip. (in)
Air Dwpt 6 hour Altimeter (inHg) Sea level (inHg) 1 hr 3 hr 6 hr
Max Min
Jan 20 15:53 W 15 10 Clear CLR 62 41     46%     30.05 30.05      
Jan 20 14:53 W 13 10 Clear CLR 62 35     36%     30.04 30.04      
Jan 20 13:53 WNW 10 10 Clear CLR 63 33     33%     30.04 30.03      
Jan 20 12:53 NW 10 10 Clear CLR 62 27     26%     30.04 30.03      
Jan 20 11:53 NNW 10 10 Clear CLR 62 27     26%     30.05 30.05      
Jan 20 10:53 NW 10 10 Clear CLR 60 29     31%     30.08 30.07      
Jan 20 09:53 NW 14 10 Clear CLR 58 31     36%     30.07 30.06      
Jan 20 08:53 NNW 10 10 Clear CLR 57 30     36%     30.05 30.04      
Jan 20 07:53 NNW 9 10 Clear CLR 55 32     41%     30.01 30.01      
Jan 20 06:53 WNW 7 10 Clear CLR 53 32     45%     29.99 29.98      
Jan 20 05:53 7 10 Clear CLR 53 32     45%     29.96 29.96      
Jan 20 04:53 NW 7 10 Clear CLR 54 31     41%     29.94 29.94      
Jan 20 03:53 NW 8 10 Mostly Clear FEW055 54 32     43%     29.94 29.94     0
Jan 20 02:53 6 10 Cloudy BKN049 OVC055 55 32     41%     29.94 29.93 0    
Jan 20 01:53 NNW 3 10 Cloudy BKN043 OVC070 56 31     38%     29.94 29.93      
Jan 20 00:53 NW 5 10 Mostly Cloudy BKN065 55 31     40%     29.93 29.93      
Jan 19 23:53 Calm 10 Clear CLR 54 36     50%     29.93 29.93      
Jan 19 22:53 Calm 10 Clear CLR 56 38     51%     29.93 29.93      
Jan 19 22:09 Calm 10 Partly Cloudy SCT026 SCT032 57 49     74%     29.93        
Jan 19 21:53 3 10 Mostly Cloudy BKN026 BKN030 58 49     72%     29.93 29.93      
Jan 19 20:53 Calm 10 Clear CLR 58 48     70%     29.92 29.92      
Jan 19 19:53 SW 8 10 Clear CLR 58 48     70%     29.92 29.92      
Jan 19 19:14 W 5 10 Partly Cloudy SCT023 59 49     69%     29.92        
Jan 19 18:53 W 8 10 Mostly Cloudy BKN023 BKN029 59 50     72%     29.92 29.92      
Jan 19 18:04 WSW 9 10 Mostly Cloudy BKN020 59 51     75%     29.92        
Jan 19 17:53 WSW 7 10 Partly Cloudy SCT020 59 51     75%     29.92 29.91      
Jan 19 17:11 WSW 3 10 Cloudy FEW025 OVC031 60 51     72%     29.91        
Jan 19 16:53 W 8 10 Cloudy BKN021 OVC029 60 52     75%     29.92 29.91      
Jan 19 15:53 W 9 10 Cloudy BKN018 OVC075 60 52     75%     29.93 29.93      
Jan 19 15:45 WNW 7 10 Cloudy BKN016 BKN021 OVC075 61 53     75%     29.93        
Jan 19 15:27 WSW 8 10 Cloudy FEW019 SCT027 OVC075 61 54     78%     29.93        
Jan 19 14:53 WSW 8 10 Cloudy SCT013 BKN018 OVC075 61 55     81%     29.93 29.93      
Jan 19 14:28 WSW 8 10 Cloudy BKN020 BKN025 OVC034 61 54     78%     29.94        
Jan 19 14:16 SW 9 10 Cloudy SCT023 OVC032 60 55     83%     29.94        
Jan 19 13:53 WSW 7 10 Cloudy OVC029 60 55     83%     29.95 29.94      
Jan 19 13:37 WSW 9 10 Cloudy BKN029 OVC035 62 54     75%     29.95        
Jan 19 12:53 WSW 7 10 Cloudy OVC041 63 54     72%     29.96 29.96      
Jan 19 12:30 W 11 10 Cloudy SCT026 OVC039 63 53     70%     29.98        
Jan 19 11:53 W 8 10 Cloudy OVC026 63 53     70%     30 29.99      
Jan 19 11:33 WSW 6 10 Cloudy BKN027 OVC031 63 53     70%     30        
Jan 19 10:53 SSE 5 7 Partly Cloudy FEW019 SCT028 63 54     72%     30.02 30.02      
Jan 19 10:42 ESE 6 7 Mostly Cloudy SCT019 BKN030 63 54     72%     30.02        
Jan 19 09:53 3 5 Haze OVC018 60 55     83%     30.03 30.03      
Jan 19 08:53 ESE 6 4 Haze FEW013 OVC022 60 55     83%     30.04 30.03      
Jan 19 07:08 Calm 10 Cloudy SCT011 OVC022 59 56     90%     30.02        
Jan 19 06:53 NE 3 10 Cloudy BKN010 OVC020 59 56     90%     30.02 30.01      
Jan 19 06:19 Calm 10 Cloudy OVC011 59 56     90%     30.02        
Jan 19 06:05 Calm 10 Cloudy BKN009 OVC013 58 55     90%     30.02        
Jan 19 05:53 Calm 10 Cloudy OVC010 58 56     93%     30.02 30.01      
Jan 19 05:37 Calm 10 Mostly Cloudy BKN010 58 56     93%     30.01        
Jan 19 05:16 Calm 10 Partly Cloudy SCT011 58 56     93%     30        
Jan 19 04:53 Calm 8 Mostly Cloudy BKN011 57 56     96%     30 30      
Jan 19 04:20 Calm 3 Fog/Mist OVC010 57 57     100%     30.01        
Jan 19 04:14 Calm 2 Fog/Mist OVC008 57 57     100%     30.01        
Jan 19 03:59 E 3 0.25 Fog VV006 56 56     100%     30.01        
Jan 19 03:53 E 3 0.25 Fog VV003 56 56     100%     30.01 30.01      
Jan 19 02:53 Calm 0.25 Fog VV002 56 56     100%     30.02 30.02      
Jan 19 01:53 E 3 0.25 Fog VV002 56 56     100%     30.03 30.03      
Jan 19 01:42 E 3 0.75 Fog/Mist OVC002 56 56     100%     30.03        
Jan 19 01:35 Calm 2 Fog/Mist BKN002 OVC008 56 56     100%     30.03        
Jan 19 01:27 Calm 1.5 Fog/Mist SCT002 OVC008 56 56     100%     30.04        
Jan 19 01:18 Calm 0.75 Fog/Mist FEW002 OVC008 56 56     100%     30.04        
Jan 19 01:12 Calm 1 Fog/Mist VV010 56 56     100%     30.04        
Jan 19 01:07 Calm 0.75 Fog/Mist VV009 56 56     100%     30.04        
Jan 18 23:53 Calm 8 Clear CLR 59 56     90%     30.04 30.03      
Jan 18 22:53 Calm 10 Clear CLR 60 56     86%     30.05 30.04      
Jan 18 21:53 Calm 10 Clear CLR 61 57     87%     30.04 30.04      
Jan 18 19:53 WSW 6 8 Clear CLR 62 59     90%     30.03 30.03      
Jan 18 18:53 WSW 5 8 Clear CLR 62 60     93%     30.02 30.02      
Jan 18 17:53 W 3 10 Clear CLR 68 50     53%     30.02 30.01      
Jan 18 16:53 Calm 9 Clear CLR 72 45     38%   71 30.01 30.01      
Jan 18 15:53 W 3 10 Clear CLR 71 48     44%   70 30.02 30.01      
Jan 18 14:53 W 5 9 Clear CLR 70 53     55%     30.04 30.03      
Jan 18 13:53 WSW 8 8 Clear CLR 69 56     63%     30.05 30.04      
Jan 18 12:53 WSW 10 6 Clear CLR 71 54     55%   70 30.06 30.06      
Jan 18 11:53 Calm 7 Clear CLR 71 52     51%   70 30.07 30.07      
Jan 18 10:53 SSE 3 7 Clear CLR 69 49     49%     30.1 30.1      
Jan 18 09:53 E 5 8 Clear CLR 66 46     48%     30.11 30.11      
Jan 18 08:53 SE 3 8 Clear CLR 62 47     58%     30.11 30.11      
Jan 18 07:53 Calm 9 Clear CLR 56 48     75%     30.1 30.09      
Jan 18 06:53 Calm 10 Clear CLR 55 47     74%     30.09 30.09      
Jan 18 05:53 Calm 9 Clear CLR 55 48     77%     30.08 30.08      
Jan 18 04:53 Calm 10 Clear CLR 55 48     77%     30.07 30.07      
Jan 18 03:53 Calm 9 Clear CLR 55 50     83%     30.07 30.07      
Jan 18 02:53 Calm 8 Clear CLR 56 52     87%     30.08 30.07      
Jan 18 01:53 Calm 9 Clear CLR 58 52     81%     30.09 30.09      
Jan 18 00:53 Calm 9 Clear CLR 59 52     78%     30.09 30.09      
Jan 17 23:53 Calm 9 Clear CLR 60 52     75%     30.09 30.09      
Jan 17 22:53 Calm 9 Clear CLR 60 55     83%     30.1 30.1      
Jan 17 21:53 Calm 9 Clear CLR 61 56     83%     30.12 30.11      
Jan 17 20:53 Calm 10 Clear CLR 61 56     83%     30.11 30.11      
Jan 17 19:53 Calm 10 Clear CLR 62 56     80%     30.1 30.1      
Jan 17 18:53 Calm 10 Clear CLR 63 56     78%     30.1 30.1      
Jan 17 17:53 WSW 3 10 Clear CLR 65 55     70%     30.11 30.11      
Jan 17 16:53 WNW 3 10 Clear CLR 68 51     55%     30.11 30.11      
Jun 12 02:53 E 3 10 Clear CLR 59 52     78%     29.97 29.97      
Jun 11 14:53 SW 11 10 Partly Cloudy FEW024 SCT029 69 54     59%     29.92 29.92      
Jun 11 03:53 SE 6 10 Cloudy OVC031 62 56     80%     29.86 29.85 0    
Jun 11 03:44 SE 6 10 Cloudy OVC031 62 56     80%     29.86   0    
Jun 10 21:53 WSW 7 10 Mostly Cloudy BKN025 64 56     75%     29.88 29.87      
Jun 10 20:15 WSW 8 10 Mostly Cloudy BKN025 65 55     70%     29.85        
Jun 10 12:53 S 9 10 Mostly Clear FEW029 69 56     63%     29.88 29.88      
Jun 10 08:53 SE 7 10 Cloudy OVC027 64 56     75%     29.9 29.89      
Jun 09 18:53 WSW 15 10 Mostly Cloudy BKN011 BKN014 66 61     84%     29.89 29.89      
Jun 09 00:53 SE 3 10 Clear CLR 61 57     87%     29.95 29.94      
Jun 08 08:53 WSW 7 10 Cloudy BKN011 OVC015 62 59     90%     30.01 30.01 0    
Jun 08 07:53 W 6 10 Cloudy SCT008 OVC015 62 59     90%     30 30      
Jun 08 01:04 WSW 6 10 Cloudy BKN007 OVC012 61 59     93%     29.99        
Jun 08 00:27 WSW 3 9 Cloudy SCT006 OVC013 61 60     97%     29.99   0    
Jun 06 09:53 S 5 9 Cloudy OVC014 64 59     84%     29.95 29.95